Content
SEND FEEDBACK

Daily
Averages
Monthly
Summary
United States of America

HINGHAM, MASSACHUSETTS


Home > North America > United States > Massachusetts
Elevation: 3 feet     Latitude: 42 14N     Longitude: 070 55W

WEATHER
 
SELECT A DAY
Number of Records: 136,391;   Date Range: 10/15/98 - 11/25/14
 
SHARE

PRINT THIS DATA

[ ← Previous Day ]
WEATHER ALMANAC - FEBRUARY 4, 2013
[ Next Day → ]
[ °C ]   °F
Weather ElementAverageHighLow
Temperature22.3 °F28 °F (11:54 am)18 °F (3:54 am)
Dewpoint8.3 °F18 °F (1:54 am)5 °F (3:54 pm)
Humidity56.5 %92 % (1:54 am)41 % (11:54 am)
Barometer29.82 in29.95 in (11:54 pm)29.73 in (1:54 am)
Wind Speed16.2 mph25.3 mph (11:54 am)
Wind Gust42.6 mph (5:54 pm)
Weather ElementAverage
Wind DirectionWNW (277.1 °)

Weather ElementTotal
Precipitation---
Heating Degree Days42 (Base 65)
Averaged from 21 records on February 4, 2013
WEATHER CONDITIONS BREAKOUT
WIND DIRECTION BREAKOUT
WEATHER BY HOUR - FEBRUARY 4, 2013
[ °C ]   °F
Local TimeTemperatureDewpointHumidityBarometerVisibilityWind DirectionWind SpeedGust SpeedPrecipitationEventsConditions
1:54 AM19.9 °F18.0 °F92 %29.73 inWest (280°)10.4 mph
2:54 AM19.0 °F15.1 °F85 %29.73 inWNW (290°)10.4 mph
3:54 AM18.0 °F12.0 °F78 %29.73 inWNW (300°)11.5 mph
6:54 AM18.0 °F10.0 °F71 %29.77 inWNW (290°)17.3 mph25.3 mph
7:54 AM19.9 °F10.9 °F68 %29.79 inWest (270°)13.8 mph24.2 mph
8:54 AM21.9 °F10.9 °F63 %29.80 inWest (270°)16.1 mph21.9 mph
9:54 AM25.0 °F10.9 °F55 %29.79 inWNW (300°)17.3 mph29.9 mph
10:54 AM26.1 °F8.1 °F47 %29.80 inWNW (300°)16.1 mph38.0 mph
11:54 AM28.0 °F7.0 °F41 %29.78 inWest (270°)25.3 mph35.7 mph
12:54 PM27.0 °F6.1 °F41 %29.77 inWest (270°)20.7 mph32.2 mph
1:54 PM25.0 °F7.0 °F46 %29.78 inWest (270°)20.7 mph34.5 mph
2:54 PM27.0 °F6.1 °F41 %29.80 inWest (280°)23.0 mph39.1 mph
3:54 PM26.1 °F5.0 °F41 %29.81 inWest (270°)16.1 mph29.9 mph
4:54 PM24.1 °F5.0 °F44 %29.82 inWest (270°)23.0 mph35.7 mph
5:54 PM23.0 °F5.0 °F46 %29.85 inWest (280°)20.7 mph42.6 mph
6:54 PM21.9 °F6.1 °F51 %29.88 inWest (270°)15.0 mph26.5 mph
7:54 PM21.0 °F6.1 °F53 %29.90 inWest (270°)16.1 mph24.2 mph
8:54 PM19.9 °F5.0 °F52 %29.92 inWest (280°)12.7 mph23.0 mph
9:54 PM19.9 °F6.1 °F55 %29.94 inWest (270°)11.5 mph
10:54 PM19.0 °F6.1 °F57 %29.94 inWest (260°)12.7 mph
11:54 PM19.0 °F7.0 °F59 %29.95 inWest (260°)10.4 mph
Hourly data recorded from KMQE, located miles away from Hingham, Massachusetts







STORIES FROM OUR PARTNERS